Location: Asheville, NC
(35.6000°N, 82.5500°W)
Time: 19:39:47
(UTC-04:00)

Vanguard 3 - Pass Details

Date: 10 March 2018
Orbit: 508 x 3264 km, 33.3° (Epoch: 23 June)

Event Time Altitude Azimuth Distance (km) Brightness Sun altitude
Rises 08:02:09 0° 221° (SW) 7,163 11.7 14.0°
Reaches altitude 10° 08:07:18 10° 216° (SW) 6,194 11.5 15.0°
Maximum altitude 08:25:18 45° 151° (SSE) 3,564 11.2 18.5°
Drops below altitude 10° 08:38:30 10° 85° (E) 4,664 12.3 21.0°
Sets 08:41:42 0° 79° (E) 5,337 12.2 21.6°
